Location: Hurstbourne Priors
(51.2000°N, 1.3667°W)
Time: 22:42:28
(UTC+00:00)

Altair - Pass Details

Date: 17 April 2021
Orbit: 1501 x 1683 km, 47.2° (Epoch: 13 May)

Event Time Altitude Azimuth Distance (km) Brightness Sun altitude
Rises 10:20:00 0° 273° (W) 4,790 9.8 44.1°
Reaches altitude 10° 10:23:09 10° 271° (W) 3,779 9.4 44.4°
Maximum altitude 10:32:33 67° 192° (SSW) 1,647 8.9 45.3°
Drops below altitude 10° 10:41:39 10° 112° (ESE) 3,662 10.2 46.0°
Sets 10:44:39 0° 110° (ESE) 4,634 10.5 46.2°
